Find Starlink 36614

NORAD ID: 67622 Int'l Des: 2026-020 Owner: SPXS Country: US Constellation: starlink operational
LEOCIRCULAR

当前视图

正在加载3D地球...

关于 Starlink 36614

正在加载描述...

即将过境

Passes for default location (London). Set your location on the main map for personalized predictions.

高度历史

Loading altitude history...

两行轨道根数

1 67622U 26020F 26146.17895635 .00023540 00000-0 86098-3 0 9994
2 67622 43.0012 62.2444 0001690 257.8185 102.2477 15.27627675 17963
Epoch: May 26, 2026 • Age: 16 hours

当前状态

高度 487.1 km
速度 7.63 km/s
星下点 43.16°N, 40.9°W
发射日期 Jan 30, 2026
运行时间 0.3 years
类型 internet

技术详情

分类 Payload
质量 575.00 kg
干质量 530.00 kg
总质量 575.00 kg
长度 0.30 m
直径 4.10 m
跨度 29.00 m
形状 Box + pan
制造商 SPXS
平台类型 Starlink V2MO
阶段状态 In Orbit
所有者/国家 SPXS/US

Most Searched